Location: Boiro
(42.6475°N, 8.8834°W)
Time: 02:59:30
(UTC+02:00)

UKube-1 - Pass Details

Date: 25 April 2024
Orbit: 583 x 591 km, 98.3° (Epoch: 23 May)

Event Time Altitude Azimuth Distance (km) Brightness Sun altitude
Rises 04:10:17 0° 5° (N) 2,837 ? -29.8°
Reaches altitude 10° 04:12:34 10° 357° (N) 1,929 ? -29.6°
Enters shadow 04:14:40 25° 338° (NNW) 1,199 ? -29.4°
